EW8702 Weather Reports


Display with metric or nautical units.
time (UTC)temp
F
wind
direction
speed
MPH
gust
MPH
rain 1hr
in
rain 24hr
in
rain mn
in
humidity
%
barometer
mb
20260503041122 53 303 2.0 3.0 0.00 0.00 0.00 39 1017.0
20260503040143 54 333 2.0 4.0 0.00 0.00 0.00 34 1017.0
20260503035122 54 330 1.0 2.0 0.00 0.00 0.00 36 1016.9
20260503034122 54 301 1.0 3.0 0.00 0.00 0.00 36 1016.8
20260503033122 55 279 1.0 6.0 0.00 0.00 0.00 41 1016.7
20260503032143 56 278 1.0 4.0 0.00 0.00 0.00 38 1016.6
20260503031122 57 278 1.0 3.0 0.00 0.00 0.00 35 1016.6
20260503030143 59 282 2.0 6.0 0.00 0.00 0.00 37 1016.5
20260503025122 60 288 1.0 3.0 0.00 0.00 0.00 33 1016.5
20260503024122 61 290 1.0 2.0 0.00 0.00 0.00 29 1016.4
20260503023122 62 292 1.0 2.0 0.00 0.00 0.00 26 1016.4
20260503022122 63 292 0.0 1.0 0.00 0.00 0.00 26 1016.3
20260503021143 64 0 0.0 0.0 0.00 0.00 0.00 21 1016.3
20260503020122 64 0 0.0 0.0 0.00 0.00 0.00 22 1016.2
20260503015122 65 0 0.0 0.0 0.00 0.00 0.00 26 1016.2
20260503014122 65 0 0.0 0.0 0.00 0.00 0.00 22 1016.2
20260503013122 65 292 1.0 3.0 0.00 0.00 0.00 22 1016.3
20260503012122 66 290 2.0 4.0 0.00 0.00 0.00 19 1016.3
20260503011221 66 0 0.0 1.0 0.00 0.00 0.00 26 1016.3
20260503010122 66 267 1.0 3.0 0.00 0.00 0.00 23 1016.3
20260503005122 66 263 0.0 1.0 0.00 0.00 0.00 21 1016.4
20260503004122 66 257 2.0 6.0 0.00 0.00 0.00 25 1016.4
20260503003122 66 271 1.0 4.0 0.00 0.00 0.00 21 1016.5
20260503002122 67 271 3.0 7.0 0.00 0.00 0.00 21 1016.5
20260503001122 67 251 2.0 6.0 0.00 0.00 0.00 26 1016.4
20260503000143 67 294 1.0 6.0 0.00 0.00 0.00 24 1016.5
20260502235122 67 256 2.0 4.0 0.00 0.00 0.00 22 1016.6
20260502234122 67 304 3.0 9.0 0.00 0.00 0.00 21 1016.7
20260502233122 67 267 5.0 9.0 0.00 0.00 0.00 20 1016.7
20260502232143 67 267 5.0 14.0 0.00 0.00 0.00 21 1016.9
20260502231122 67 258 4.0 10.0 0.00 0.00 0.00 21 1016.9
20260502230122 67 257 4.0 9.0 0.00 0.00 0.00 19 1017.0
20260502225122 68 242 3.0 8.0 0.00 0.00 0.00 21 1017.1
20260502224122 68 242 3.0 6.0 0.00 0.00 0.00 22 1017.2
20260502223122 68 250 3.0 8.0 0.00 0.00 0.00 20 1017.4
20260502222122 69 261 4.0 9.0 0.00 0.00 0.00 22 1017.5
20260502221122 69 245 4.0 8.0 0.00 0.00 0.00 19 1017.6
20260502220122 69 230 4.0 7.0 0.00 0.00 0.00 20 1017.7
20260502215122 69 247 4.0 9.0 0.00 0.00 0.00 20 1017.8
20260502214122 69 240 4.0 9.0 0.00 0.00 0.00 21 1018.0
20260502213122 69 237 4.0 8.0 0.00 0.00 0.00 21 1018.2
20260502212122 69 246 4.0 9.0 0.00 0.00 0.00 20 1018.3
20260502211122 69 251 4.0 10.0 0.00 0.00 0.00 19 1018.4
20260502210122 69 228 4.0 8.0 0.00 0.00 0.00 22 1018.6
20260502205122 68 235 4.0 8.0 0.00 0.00 0.00 23 1018.6
20260502204122 68 244 4.0 9.0 0.00 0.00 0.00 22 1018.8
20260502203143 68 216 5.0 9.0 0.00 0.00 0.00 21 1018.8
20260502202122 68 222 4.0 8.0 0.00 0.00 0.00 22 1018.9
20260502201122 68 243 4.0 9.0 0.00 0.00 0.00 23 1018.9
20260502200122 68 250 5.0 12.0 0.00 0.00 0.00 24 1019.0
20260502195122 68 254 4.0 9.0 0.00 0.00 0.00 25 1019.0
20260502194143 68 254 3.0 10.0 0.00 0.00 0.00 19 1019.1
20260502193122 69 256 2.0 12.0 0.00 0.00 0.00 22 1019.2
20260502192122 69 264 5.0 13.0 0.00 0.00 0.00 24 1019.3
20260502191143 69 277 2.0 7.0 0.00 0.00 0.00 19 1019.6
20260502190122 69 18 3.0 6.0 0.00 0.00 0.00 25 1019.7
20260502185122 69 129 2.0 5.0 0.00 0.00 0.00 18 1019.9
20260502184122 68 132 1.0 3.0 0.00 0.00 0.00 23 1020.0
20260502183122 67 137 2.0 6.0 0.00 0.00 0.00 19 1020.2
20260502182122 66 126 1.0 4.0 0.00 0.00 0.00 20 1020.3
20260502181122 65 131 1.0 4.0 0.00 0.00 0.00 21 1020.4
20260502180122 64 186 1.0 3.0 0.00 0.00 0.00 26 1020.7
20260502170122 58 117 1.0 3.0 0.00 0.00 0.00 29 1021.3
20260502164122 56 89 1.0 3.0 0.00 0.00 0.00 36 1021.5
20260502163122 55 137 1.0 6.0 0.00 0.00 0.00 36 1021.6
20260502162143 54 180 1.0 4.0 0.00 0.00 0.00 34 1021.7
20260502161122 54 152 1.0 5.0 0.00 0.00 0.00 43 1021.8
20260502160143 52 142 1.0 3.0 0.00 0.00 0.00 38 1021.9
20260502152143 45 120 1.0 4.0 0.00 0.00 0.00 47 1022.2
20260502151122 43 249 0.0 1.0 0.00 0.00 0.00 59 1022.2
20260502150122 42 250 0.0 2.0 0.00 0.00 0.00 62 1022.2
20260502140122 36 329 1.0 2.0 0.00 0.00 0.00 74 1022.4
20260502123122 34 0 0.0 0.0 0.00 0.00 0.00 69 1021.9
20260502122122 34 333 0.0 2.0 0.00 0.00 0.00 69 1021.7
20260502121122 34 332 0.0 2.0 0.00 0.00 0.00 68 1021.7
20260502120143 34 331 1.0 2.0 0.00 0.00 0.00 68 1021.6
20260502115122 34 0 0.0 0.0 0.00 0.00 0.00 67 1021.5
20260502114122 35 0 0.0 0.0 0.00 0.00 0.00 67 1021.6
20260502113122 35 331 0.0 1.0 0.00 0.00 0.00 66 1021.7
20260502112122 35 0 0.0 0.0 0.00 0.00 0.00 66 1021.6
20260502111143 35 0 0.0 0.0 0.00 0.00 0.00 65 1021.6
20260502110122 36 0 0.0 0.0 0.00 0.00 0.00 65 1021.6
20260502105122 36 332 0.0 1.0 0.00 0.00 0.00 64 1021.6
20260502104122 37 0 0.0 0.0 0.00 0.00 0.00 64 1021.4
20260502103122 37 342 0.0 2.0 0.00 0.00 0.00 63 1021.5
20260502102122 38 0 0.0 0.0 0.00 0.00 0.00 63 1021.5
20260502101122 38 351 0.0 1.0 0.00 0.00 0.00 63 1021.4
20260502100122 37 349 1.0 3.0 0.00 0.00 0.00 63 1021.3
20260502091143 39 0 0.0 0.0 0.00 0.00 0.00 61 1021.1
20260502090122 39 0 0.0 0.0 0.00 0.00 0.00 61 1021.1
20260502071143 43 0 0.0 0.0 0.00 0.00 0.00 56 1021.0
20260502070122 43 0 0.0 0.0 0.00 0.00 0.00 56 1020.9
20260502065122 43 0 0.0 0.0 0.00 0.00 0.00 54 1020.9
20260502064143 43 292 0.0 1.0 0.00 0.00 0.00 53 1020.9
20260502063122 44 292 0.0 1.0 0.00 0.00 0.00 53 1020.6
20260502062122 44 291 0.0 2.0 0.00 0.00 0.00 52 1020.6
20260502061122 44 288 0.0 1.0 0.00 0.00 0.00 52 1020.4
20260502055122 46 306 1.0 4.0 0.00 0.00 0.00 53 1020.3
20260502054122 46 338 1.0 3.0 0.00 0.00 0.00 48 1020.2
20260502053122 47 0 0.0 0.0 0.00 0.00 0.00 50 1020.3
20260502052122 47 0 0.0 0.0 0.00 0.00 0.00 50 1020.3
20260502051122 47 317 0.0 1.0 0.00 0.00 0.00 48 1020.1
20260502050143 48 0 0.0 0.0 0.00 0.00 0.00 46 1020.0
20260502045143 49 0 0.0 0.0 0.00 0.00 0.00 46 1020.0
20260502044122 49 0 0.0 0.0 0.00 0.00 0.00 44 1020.1
20260502043122 49 304 1.0 2.0 0.00 0.00 0.00 44 1020.0
20260502042122 50 285 1.0 2.0 0.00 0.00 0.00 44 1019.9